星链-1683 (STARLINK-1683 )

导读 | 星芒AI

STARLINK-1683 是美国太空探索技术公司(SpaceX)“星链”(Starlink)计划中的一颗低轨通信卫星。该卫星属于星链第二代(v1.5)批次,旨在为全球用户提供高速互联网服务。它运行在约550公里高度的近地轨道,具备先进通信技术,支持更广覆盖和更高带宽。STARLINK-1683 的发射和运行有助于增强星链网络的稳定性和服务能力,特别是在偏远和网络基础设施薄弱的地区。

基本信息
目录编号:
46578
目录名称:
STARLINK-1683
国际标识:
2020-070AY
轨道中心:
EARTH
卫星名称:
星链-1683
卫星全名:
星链-1683 (STARLINK-1683 )
卫星状态:
在轨 (已飞行1897 天)
发射日期:
2020-10-06 UTC
国别 :
美国 (US)
星等 :
--
轨道信息
数据来源 国际轨道数据
星历时间: 2025-12-16T08:00:03+0800
8小时前
查看轨道信息
半长轴: 6796.496km
偏心率: 0.0006231
轨道倾角: 53.018°
近地点辐角 140.962°
升交点赤经 121.969°
平近点角 141.154°
近地点: 414.126km
远地点: 422.596km
周期: 92.937分钟
每日圈数: 15.494415
详细信息
固有亮度:
5
最大亮度:
2.5
卫星平台:
Starlink V1.0
覆盖范围:
全球
运营商:
太空探索技术公司
运营商所在国:
美国
制造商(研发单位):
太空探索技术公司
制造商所在国:
美国
使用方式:
暂无
卫星简介
星链(Starlink)计划是由太空探索技术公司(SpaceX)提出的一个巨型低轨卫星互联网星座项目,计划在2019年至2024年间在太空搭建由约1.2万颗卫星组成的“星链”网络,其中1584颗将部署在地球上空550千米处的近地轨道,并从2020年开始工作。该卫星仍在工作。
2D轨道图
3D轨道图
轨道高度分析图
轨道倾角分析图
轨道综合分析图
查看轨道综合分析图